TimeCDT,TemperatureF,Dew PointF,Humidity,Sea Level PressureIn,VisibilityMPH,Wind Direction,Wind SpeedMPH,Gust SpeedMPH,PrecipitationIn,Events,Conditions,WindDirDegrees,DateUTC
12:51 AM,46.9,37.0,68,30.24,10.0,ENE,3.5,-,N/A,,Overcast,60,2012-10-08 05:51:00
1:51 AM,45.0,39.0,80,30.24,10.0,NE,3.5,-,N/A,,Scattered Clouds,50,2012-10-08 06:51:00
3:51 AM,42.1,37.0,82,30.22,10.0,Calm,Calm,-,N/A,,Clear,0,2012-10-08 08:51:00
4:51 AM,39.0,36.0,89,30.22,10.0,Calm,Calm,-,N/A,,Clear,0,2012-10-08 09:51:00
5:51 AM,37.9,35.1,89,30.24,10.0,Calm,Calm,-,N/A,,Clear,0,2012-10-08 10:51:00
6:51 AM,36.0,35.1,97,30.25,10.0,Calm,Calm,-,N/A,,Clear,0,2012-10-08 11:51:00
8:27 AM,39.2,37.4,93,30.24,10.0,Calm,Calm,-,N/A,,Mostly Cloudy,0,2012-10-08 13:27:00
8:51 AM,41.0,37.9,89,30.26,10.0,Calm,Calm,-,N/A,,Overcast,0,2012-10-08 13:51:00
9:51 AM,44.1,39.0,82,30.26,10.0,Calm,Calm,-,N/A,,Overcast,0,2012-10-08 14:51:00
10:07 AM,46.4,39.2,76,30.24,1.8,Calm,Calm,-,N/A,,Haze,0,2012-10-08 15:07:00
10:15 AM,46.4,39.2,76,30.24,10.0,Calm,Calm,-,N/A,,Overcast,0,2012-10-08 15:15:00
10:51 AM,48.0,39.9,74,30.25,10.0,Calm,Calm,-,N/A,,Overcast,0,2012-10-08 15:51:00
11:51 AM,50.0,41.0,71,30.24,10.0,Calm,Calm,-,N/A,,Overcast,0,2012-10-08 16:51:00
12:51 PM,53.1,42.1,66,30.21,10.0,Calm,Calm,-,N/A,,Overcast,0,2012-10-08 17:51:00
1:51 PM,57.0,44.1,62,30.17,10.0,Variable,3.5,-,N/A,,Overcast,0,2012-10-08 18:51:00
2:28 PM,59.0,44.6,59,30.13,10.0,Calm,Calm,-,N/A,,Scattered Clouds,0,2012-10-08 19:28:00
2:51 PM,62.1,45.0,53,30.11,10.0,Calm,Calm,-,N/A,,Clear,0,2012-10-08 19:51:00
3:51 PM,64.9,48.0,54,30.07,10.0,East,8.1,-,N/A,,Clear,90,2012-10-08 20:51:00
4:51 PM,69.1,51.1,53,30.05,10.0,Variable,6.9,-,N/A,,Clear,0,2012-10-08 21:51:00
5:51 PM,71.1,51.1,49,30.02,10.0,South,6.9,-,N/A,,Clear,180,2012-10-08 22:51:00
8:51 PM,60.1,52.0,75,30.03,10.0,Calm,Calm,-,N/A,,Clear,0,2012-10-09 01:51:00
9:51 PM,55.9,51.1,84,30.03,10.0,South,4.6,-,N/A,,Clear,190,2012-10-09 02:51:00
10:51 PM,60.1,53.1,78,30.03,10.0,South,8.1,-,N/A,,Clear,190,2012-10-09 03:51:00
11:51 PM,57.9,52.0,81,30.02,10.0,SSW,4.6,-,N/A,,Clear,200,2012-10-09 04:51:00